Location: Gorze? G�rny
(49.8500°N, 19.5000°E)
Time: 04:15:53
(UTC+00:00)

USA 308 - Pass Details

Date: 13 May 2021
Orbit: 568 x 576 km, 54.0° (Epoch: 10 May)

Event Time Altitude Azimuth Distance (km) Brightness Sun altitude
Rises 19:46:31 0° 295° (WNW) 2,785 7.8 -11.7°
Reaches altitude 10° 19:48:49 10° 290° (WNW) 1,885 6.6 -12.0°
Maximum altitude 19:52:57 49° 216° (SW) 745 3.4 -12.4°
Enters shadow 19:55:41 20° 148° (SSE) 1,361 4.2 -12.7°
